Terug naar catalogus

ICEYE-X4

ActiefWetenschapPO
NORAD 44390·PAYLOAD·🇫🇮 Finland

Gelanceerd Jul 5, 2019 vanaf Vostochny Cosmodrome

Loading…

Volgende Passages (komende 24 uur)

TLE

VersSource: Space-Track

Epoch: Sep 14, 2026, 14:09 UTC

1 44390U 19038D   26257.58961804  .00009189  00000-0  30845-3 0  9994
2 44390  97.8690 295.8511 0012258 358.2149   1.9045 15.31046889395474

Volg ICEYE-X4 in realtime met AllMySat

Download on the App Store